Regional Weather Roundup
Issued by NWS Nashville, TN

Home | Current Version | Previous Version | Text Only | Print | Product List | Glossary On
Versions: 1 2 3 4 5 6 7 8 9 10 11 12 13 14 15 16 17 18 19 20 21 22 23 24 25 26 27 28 29 30 31 32 33 34 35 36 37 38 39 40 41 42 43 44 45 46 47 48 49 50
000
ASUS44 KOHX 312210
RWROHX
MIDDLE TENNESSEE HOURLY WEATHER ROUNDUP
NATIONAL WEATHER SERVICE NASHVILLE TN
500 PM CDT MON AUG 31 2015

NOTE: "FAIR" INDICATES FEW OR NO CLOUDS BELOW 12,000 FEET WITH
NO SIGNIFICANT WEATHER AND/OR OBSTRUCTIONS TO VISIBILITY.

* THESE REPORTS ARE NOT UNDER NWS QUALITY CONTROL AND MAY NOT
  REPORT WEATHER SUCH AS PRECIPITATION AND FOG.


TNZ005>011-023>034-057-059-062>066-078-080-312300
...NORTHERN MIDDLE TENNESSEE...

CITY           SKY/WX    TMP DP  RH WIND       PRES   REMARKS
CLARKSVILLE    MOSUNNY   87  63  44 S6        30.06S
CROSSVILLE     CLOUDY    79  64  60 NE5       30.14S
DICKSON        SUNNY     86  64  48 CALM      30.08S
NASHVILLE      MOSUNNY   86  61  42 CALM      30.08S
SMYRNA         MOSUNNY   94  65  38 CALM      30.07F HX  96
$$
TNZ056-058-060-061-075>077-079-093>097-312300
...SOUTHERN MIDDLE TENNESSEE...

CITY           SKY/WX    TMP DP  RH WIND       PRES   REMARKS
COLUMBIA       MOSUNNY   88  68  51 E6        30.06F HX  91
LEWISBURG      SUNNY     85  64  49 MISG      30.08S
MCMINNVILLE    PTSUNNY   81  70  69 CALM      30.10S
SHELBYVILLE    SUNNY     84  70  61 SE3       30.09S
TULLAHOMA      PTSUNNY   84  64  51 CALM      30.10F
WINCHESTER     CLOUDY    81  66  61 E3        30.10R
$$


...KEY TO REMARKS...
VSB - VISIBILITY IN MILES
WCI - WIND CHILL INDEX
HX  - HEAT INDEX



USA.gov is the U.S. government's official web portal to all federal, state and local government web resources and services.